Weather reports worldwide

Advertisment
Moskva, Russia (27612): temperature & dewpoint: 11.08.2018 23:00:00 - 17.08.2018 23:00:00 (MSK)Moskva, Russia (27612): wind speed: 11.08.2018 23:00:00 - 17.08.2018 23:00:00 (MSK)Moskva, Russia (27612): wind direction: 11.08.2018 23:00:00 - 17.08.2018 23:00:00 (MSK)Moskva, Russia (27612): reduced air pressure: 11.08.2018 23:00:00 - 17.08.2018 23:00:00 (MSK)Moskva, Russia (27612): visibility: 11.08.2018 23:00:00 - 17.08.2018 23:00:00 (MSK)
Date & Time tt [°C] td [°C] ff [km/h] ff [kn] dd ppp [hPa] vv [km]
17.08.2018 23:00:00 - - - - - - -
17.08.2018 22:00:00 - - - - - - -
17.08.2018 21:00:00 18,0 9,4 4 2 E 1023,8 -
17.08.2018 20:00:00 - - - - - - -
17.08.2018 19:00:00 - - - - - - -
17.08.2018 18:00:00 22,4 7,9 4 2 NE 1023,0 10
17.08.2018 17:00:00 - - - - - - -
17.08.2018 16:00:00 - - - - - - -
17.08.2018 15:00:00 22,7 7,0 4 2 ESE 1023,9 10
17.08.2018 14:00:00 - - - - - - -
17.08.2018 13:00:00 - - - - - - -
17.08.2018 12:00:00 20,4 8,2 7 4 NNE 1024,5 10
17.08.2018 11:00:00 - - - - - - -
17.08.2018 10:00:00 - - - - - - -
17.08.2018 09:00:00 19,0 11,2 4 2 ENE 1024,6 10
17.08.2018 08:00:00 - - - - - - -
17.08.2018 07:00:00 - - - - - - -
17.08.2018 06:00:00 11,7 11,2 0 0 N 1024,5 2,0
17.08.2018 05:00:00 - - - - - - -
17.08.2018 04:00:00 - - - - - - -
17.08.2018 03:00:00 12,8 12,2 0 0 N 1022,8 -
17.08.2018 02:00:00 - - - - - - -
17.08.2018 01:00:00 - - - - - - -
17.08.2018 00:00:00 14,0 13,2 0 0 N 1021,8 -
16.08.2018 23:00:00 - - - - - - -
16.08.2018 22:00:00 - - - - - - -
16.08.2018 21:00:00 16,8 14,7 4 2 N 1020,6 -
16.08.2018 20:00:00 - - - - - - -
16.08.2018 19:00:00 - - - - - - -
16.08.2018 18:00:00 19,0 14,1 7 4 NNE 1018,6 10
16.08.2018 17:00:00 - - - - - - -
16.08.2018 16:00:00 - - - - - - -
16.08.2018 15:00:00 19,1 14,5 4 2 NNW 1017,8 10
16.08.2018 14:00:00 - - - - - - -
16.08.2018 13:00:00 - - - - - - -
16.08.2018 12:00:00 17,3 15,1 4 2 NNW 1016,6 4,0
16.08.2018 11:00:00 - - - - - - -
16.08.2018 10:00:00 - - - - - - -
16.08.2018 09:00:00 17,7 15,0 4 2 NW 1014,8 10
16.08.2018 08:00:00 - - - - - - -
16.08.2018 07:00:00 - - - - - - -
16.08.2018 06:00:00 16,3 15,7 4 2 W 1013,4 4,0
16.08.2018 05:00:00 - - - - - - -
16.08.2018 04:00:00 - - - - - - -
16.08.2018 03:00:00 16,5 15,7 0 0 N 1012,3 -
16.08.2018 02:00:00 - - - - - - -
16.08.2018 01:00:00 - - - - - - -
16.08.2018 00:00:00 17,7 16,8 4 2 W 1011,2 -
15.08.2018 23:00:00 - - - - - - -
15.08.2018 22:00:00 - - - - - - -
15.08.2018 21:00:00 18,1 17,4 0 0 N 1010,7 -
15.08.2018 20:00:00 - - - - - - -
15.08.2018 19:00:00 - - - - - - -
15.08.2018 18:00:00 24,3 17,2 4 2 ESE 1008,5 10
15.08.2018 17:00:00 - - - - - - -
15.08.2018 16:00:00 - - - - - - -
15.08.2018 15:00:00 22,7 16,6 4 2 SSW 1010,5 10
15.08.2018 14:00:00 - - - - - - -
15.08.2018 13:00:00 - - - - - - -
15.08.2018 12:00:00 22,5 14,6 7 4 SSE 1010,3 10
15.08.2018 11:00:00 - - - - - - -
15.08.2018 10:00:00 - - - - - - -
15.08.2018 09:00:00 22,4 11,3 4 2 SSE 1012,0 10
15.08.2018 08:00:00 - - - - - - -
15.08.2018 07:00:00 - - - - - - -
15.08.2018 06:00:00 17,2 12,0 0 0 N 1013,8 10
15.08.2018 05:00:00 - - - - - - -
15.08.2018 04:00:00 - - - - - - -
15.08.2018 03:00:00 17,6 12,8 0 0 N 1014,5 -
15.08.2018 02:00:00 - - - - - - -
15.08.2018 01:00:00 - - - - - - -
15.08.2018 00:00:00 15,2 11,0 0 0 N 1015,4 -
14.08.2018 23:00:00 - - - - - - -
14.08.2018 22:00:00 - - - - - - -
14.08.2018 21:00:00 17,5 9,8 0 0 N 1015,0 10
14.08.2018 20:00:00 - - - - - - -
14.08.2018 19:00:00 - - - - - - -
14.08.2018 18:00:00 23,7 6,1 4 2 W 1014,1 10
14.08.2018 17:00:00 - - - - - - -
14.08.2018 16:00:00 - - - - - - -
14.08.2018 15:00:00 23,4 6,1 4 2 W 1014,5 10
14.08.2018 14:00:00 - - - - - - -
14.08.2018 13:00:00 - - - - - - -
14.08.2018 12:00:00 21,7 7,7 4 2 WNW 1015,2 10
14.08.2018 11:00:00 - - - - - - -
14.08.2018 10:00:00 - - - - - - -
14.08.2018 09:00:00 18,3 11,7 4 2 NE 1015,0 10
14.08.2018 08:00:00 - - - - - - -
14.08.2018 07:00:00 - - - - - - -
14.08.2018 06:00:00 13,7 11,0 4 2 WNW 1014,1 10
14.08.2018 05:00:00 - - - - - - -
14.08.2018 04:00:00 - - - - - - -
14.08.2018 03:00:00 14,8 10,4 0 0 N 1012,8 -
14.08.2018 02:00:00 - - - - - - -
14.08.2018 01:00:00 - - - - - - -
14.08.2018 00:00:00 17,1 9,9 4 2 WNW 1011,6 -
13.08.2018 23:00:00 - - - - - - -
13.08.2018 22:00:00 - - - - - - -
13.08.2018 21:00:00 18,2 8,7 4 2 WNW 1011,3 10
13.08.2018 20:00:00 - - - - - - -
13.08.2018 19:00:00 - - - - - - -
13.08.2018 18:00:00 20,6 7,4 7 4 W 1010,5 10
13.08.2018 17:00:00 - - - - - - -
13.08.2018 16:00:00 - - - - - - -
13.08.2018 15:00:00 21,5 5,5 4 2 WSW 1010,9 10
13.08.2018 14:00:00 - - - - - - -
13.08.2018 13:00:00 - - - - - - -
13.08.2018 12:00:00 21,0 6,2 7 4 WSW 1010,9 10
13.08.2018 11:00:00 - - - - - - -
13.08.2018 10:00:00 - - - - - - -
13.08.2018 09:00:00 18,6 8,7 4 2 W 1011,2 10
13.08.2018 08:00:00 - - - - - - -
13.08.2018 07:00:00 - - - - - - -
13.08.2018 06:00:00 15,9 8,8 4 2 W 1011,5 10
13.08.2018 05:00:00 - - - - - - -
13.08.2018 04:00:00 - - - - - - -
13.08.2018 03:00:00 17,0 10,7 4 2 WNW 1011,6 -
13.08.2018 02:00:00 - - - - - - -
13.08.2018 01:00:00 - - - - - - -
13.08.2018 00:00:00 19,0 11,8 4 2 W 1011,7 -
12.08.2018 23:00:00 - - - - - - -
12.08.2018 22:00:00 - - - - - - -
12.08.2018 21:00:00 22,0 11,9 4 2 W 1011,3 10
12.08.2018 20:00:00 - - - - - - -
12.08.2018 19:00:00 - - - - - - -
12.08.2018 18:00:00 25,8 10,0 4 2 W 1010,6 10
12.08.2018 17:00:00 - - - - - - -
12.08.2018 16:00:00 - - - - - - -
12.08.2018 15:00:00 27,2 9,3 7 4 S 1011,9 10
12.08.2018 14:00:00 - - - - - - -
12.08.2018 13:00:00 - - - - - - -
12.08.2018 12:00:00 26,8 9,0 4 2 SW 1013,8 10
12.08.2018 11:00:00 - - - - - - -
12.08.2018 10:00:00 - - - - - - -
12.08.2018 09:00:00 24,2 10,7 4 2 SW 1015,3 10
12.08.2018 08:00:00 - - - - - - -
12.08.2018 07:00:00 - - - - - - -
12.08.2018 06:00:00 14,9 12,4 0 0 N 1017,3 10
12.08.2018 05:00:00 - - - - - - -
12.08.2018 04:00:00 - - - - - - -
12.08.2018 03:00:00 16,9 12,0 0 0 N 1018,2 -
12.08.2018 02:00:00 - - - - - - -
12.08.2018 01:00:00 - - - - - - -
12.08.2018 00:00:00 17,7 12,8 0 0 N 1019,1 -
11.08.2018 23:00:00 - - - - - - -

tt = temperature
td = dewpoint
ff = wind speed
dd = wind direction
ppp = reduced air pressure
vv = visibility

Next stations